Погода в Баринасе

Венесуэла     8°39′29″N   70°15′01″W
темп.,
°C
ветер,
м/с
пор.,
м/с
влажн.,
%
обл.,
%
осадки,
мм/ч
давл.,
гПа
погр.,
м
29 июня, ср
ср2923:00+22ссз118775 0.1 101620
02:00+21сз1187100 0.1 101417
05:00+20сз119152 0.1 101413
08:00+23зюз008247 0.1 1014104
11:00+28ююв216199 0.0 10141018
14:00+27юв1172100 0.6 1012651
17:00+27ююв1273100 0.1 1009298
20:00+23юв0094100 0.2 101112
30 июня, чт
чт3023:00+22сз1197100 2.9 101423
02:00+21сз1196100 3.6 101223
05:00+20сз119538 0.0 101217
08:00+22зюз118785 0.1 1014100
11:00+22ююз119098 0.3 1015159
14:00+23ююв1187100 1.3 1013290
17:00+22ссв0097100 0.6 101135
20:00+21з009798 0.6 101217
1 июля, пт
пт123:00+21св1196100 0.0 101437
02:00+20ссз119860 0.0 101315
05:00+20с119892 0.0 101221
08:00+22св118639 0.0 1014163
11:00+26юв227745 0.9 1013846
14:00+25юв018859 4.4 1012445
17:00+26всв118182 2.4 1010506
20:00+22сз119599 4.7 101113
2 июля, сб
сб223:00+21ссз119784 1.4 101321
02:00+21ссз1193100 2.3 101112
05:00+21зюз009498 0.1 101213
08:00+21ссз119484 0.2 101435
11:00+26ююв227611 1.3 1013701
14:00+25ю239065 4.9 1012480
17:00+26ююз128348 2.8 1010651
20:00+23сз11957 3.6 101211
3 июля, вс
вс323:00+22ссз1196100 0.1 101425
02:00+21ссз1198100 3.1 101343
05:00+21с119896 2.2 101336
08:00+21св1198100 5.5 101571
11:00+21зсз0199100 26.3 101687
14:00+24св118291 30.9 1014397
17:00+26вюв116838 0.0 1012687
20:00+22св119285 0.0 101411